SCP
0 0 0 0 0 0 0 0 0 0 0 0 0 0 0 0 0 0 0 0 0 0 0 0 0 0 0 0 0 0 0 0 0 0 0 0 0 0
0 0 0 0 0 0 0 0 0 0 0 0 0 0 0 0 0 0 0 0 0 0 0 0 0 0 0 0 0 0 0 0 0 0 0 0 0 0
0 0 0 0 0 0 0 0 0 0 0 0 0 0 0 0 0 0 0 0 0 0 0 0 0 0 0 0 0 0 0 0 0 0 0 0 0 0
0 0 0 0 0 0 0 0 0 0 0 0 0 0 0 0 0 0 0 0 0 0 0 0 0 0 0 0 0 0 0 0 0 0 0 0 0 0
0 0 0 0 0 0 0 0 0 0 0 0 0 0 0 0 0 0 0 0 0 0 0 0 0 0 0 0 0 0 0 0 0 0 0 0 0 0
0 0 0 0 0 0 0 0 0 0 0 0 0 0 0 0 0 0 0 0 0 0 0 0 0 0 0 0 0 0 0 0 0 0 0 0 0 0
0 0 0 0 0 0 0 0 0 0 0 0 0 0 0 0 0 0 0 0 0 0 0 0 0 0 0 0 0 0 0 0 0 0 0 0 0 0
0 0 0 0 0 0 0 0 0 0 0 0 0 0 0 0 0 0 0 0 0 0 0 0 0 0 0 0 0 0 0 0 0 0 0 0 0 0
0 0 0 0 0 0 0 0 0 0 0 0 0 0 0 0 0 0 0 0 0 0 0 0 0 0 0 0 0 0 0 0 0 0 0 0 0 0
0 0 0 0 0 0 0 0 0 0 0 0 0 0 0 0 0 0 0 0 0 0 0 0 0 0 0 0 0 0 0 0 0 0 0 0 0 0
0 0 0 0 0 0 0 0 0 0 0 0 0 0 0 0 0 0 0 0 0 0 0 0 0 0 0 0 0 0 0 0 0 0 0 0 0 0
0 0 0 0 0 0 0 0 0 0 0 0 0 0 0 0 0 0 0 0 0 0 0 0 0 0 0 0 0 0 0 0 0 0 0 0 0 0
0 0 0 0 0 0 0 0 0 0 0 0 0 0 0 0 0 0 0 0 0 0 0 0 0 0 0 0 0 0 0 0 0 0 0 0 0 0
0 0 0 0 0 0 0 0 0 0 0 0 0 0 0 0 0 0 0 0 0 0 0 0 0 0 0 0 0 0 0 0 0 0 0 0 0 0
0 0 0 0 0 0 0 0 0 0 0 0 0 0 0 0 0 0 0 0 0 0 0 0 0 0 0 0 0 0 0 0 0 0 0 0 0 0
0 0 0 0 0 0 0 0 0 0 0 0 0 0 0 0 0 0 0 0 0 0 0 0 0 0 0 0 0 0 0 0 0 0 0 0 0 0
0 0 0 0 0 0 0 0 0 0 0 0 0 0 0 0 0 0 0 0 0 0 0 0 0 0 0 0 0 0 0 0 0 0 0 0 0 0
0 0 0 0 0 0 0 0 0 0 0 0 0 0 0 0 0 0 0 0 0 0 0 0 0 0 0 0 0 0 0 0 0 0 0 0 0 0
0 0 0 0 0 0 0 0 0 0 0 0 0 0 0 0 0 0 0 0 0 0 0 0 0 0 0 0 0 0 0 0 0 0 0 0 0 0
0 0 0 0 0 0 0 0 0 0 0 0 0 0 0 0 0 0 0 0 0 0 0 0 0 0 0 0 0 0 0 0 0 0 0 0 0 0
0 0 0 0 0 0 0 0 0 0 0 0 0 0 0 0 0 0 0 0 0 0 0 0 0 0 0 0 0 0 0 0 0 0 0 0 0 0
0 0 0 0 0 0 0 0 0 0 0 0 0 0 0 0 0 0 0 0 0 0 0 0 0 0 0 0 0 0 0 0 0 0 0 0 0 0
0 0 0 0 0 0 0 0 0 0 0 0 0 0 0 0 0 0 0 0 0 0 0 0 0 0 0 0 0 0 0 0 0 0 0 0 0 0
Wind_Speed
3 3 2 1 1 1 2 2 3 1 1 2 2 3 3 2 2 2 2 3 4 4 4 5 5 5 5 6 7 7 8 8 8 8 9 11 12 13
2 3 2 1 2 2 2 2 2 2 1 1 2 2 3 3 3 3 3 5 4 5 5 5 5 6 6 6 7 7 8 8 8 9 9 9 9 11
2 2 2 2 2 1 2 2 1 2 2 1 1 2 2 3 3 3 3 2 3 5 6 6 5 5 6 6 7 7 8 8 9 9 10 10 10 11
2 2 2 1 2 1 1 1 1 1 2 1 1 2 2 2 3 3 3 2 3 5 6 6 6 6 6 7 7 8 8 9 9 10 10 10 11 12
3 3 3 2 2 1 1 1 1 1 1 1 1 1 2 2 2 3 3 3 4 4 5 5 6 6 7 7 8 8 9 10 10 10 10 11 11 11
3 3 3 4 4 3 2 2 2 1 1 1 2 2 2 2 2 2 3 2 3 4 4 4 5 6 7 8 9 9 10 10 10 11 11 11 11 12
3 3 4 5 6 5 3 3 3 2 2 2 2 2 2 2 2 2 3 4 4 3 3 3 3 4 5 7 8 9 10 10 11 11 11 12 12 12
4 3 4 4 5 6 7 7 7 5 4 3 3 3 4 4 3 2 2 3 4 2 2 5 4 6 6 6 8 10 11 11 11 11 12 12 12 13
4 4 3 3 3 3 4 5 6 8 8 5 5 6 5 5 3 4 4 4 5 4 3 6 5 6 6 6 10 12 12 12 12 11 11 12 12 13
5 5 5 5 4 4 4 4 5 6 7 7 7 8 7 6 5 5 5 5 6 5 4 5 5 6 6 6 9 11 11 11 11 12 12 12 12 12
5 6 6 6 7 6 5 5 6 6 6 8 10 10 10 10 7 4 4 4 6 5 4 4 5 5 5 6 6 8 9 10 11 11 12 12 12 11
5 5 8 9 8 6 6 6 7 7 5 5 5 7 7 8 8 8 7 6 5 5 3 4 4 4 5 4 4 5 6 8 10 11 12 12 11 7
5 5 5 8 10 9 8 7 9 7 5 5 6 6 6 5 6 6 7 7 7 7 5 4 4 4 5 6 5 6 6 6 6 7 10 11 11 9
6 5 5 7 9 9 7 9 10 7 5 5 5 6 6 6 5 5 7 8 9 10 7 6 6 6 6 7 8 6 6 6 6 7 7 8 10 12
6 8 8 8 7 7 9 10 7 5 5 5 7 7 6 6 6 5 6 7 9 10 10 10 9 8 7 8 8 8 7 7 7 7 7 7 7 6
7 6 7 7 7 7 7 6 5 5 6 7 7 7 6 5 6 5 5 5 5 7 8 10 10 10 8 10 9 9 8 7 6 7 8 8 8 7
4 3 3 3 4 4 5 5 5 4 6 6 6 7 7 7 7 5 5 4 5 6 7 5 6 7 10 9 8 9 9 9 9 8 7 9 9 8
4 4 4 5 6 6 6 6 5 6 6 6 6 7 7 7 7 6 5 6 7 8 8 6 4 4 5 7 11 10 9 9 9 8 7 8 10 9
5 5 6 6 6 6 6 6 6 6 5 6 6 7 7 7 7 7 7 7 7 8 8 6 5 5 8 10 7 10 9 9 8 8 8 8 10 9
5 6 6 6 6 6 6 6 7 6 5 6 6 7 7 7 7 7 7 8 8 8 8 6 6 7 8 9 8 7 10 9 8 9 9 8 9 10
6 6 7 6 6 6 6 6 6 6 6 6 6 7 7 7 7 7 7 9 8 7 8 8 8 8 7 5 7 8 8 10 11 9 9 8 9 8
6 6 6 6 6 6 6 5 6 6 6 6 6 6 6 6 8 9 8 7 7 8 9 8 7 5 5 7 10 11 11 9 9 14 15 12 8 7
6 6 6 6 6 5 5 6 7 6 6 6 6 6 6 6 6 7 7 7 7 8 9 8 6 5 6 7 9 10 13 12 9 8 9 12 18 19
Wind_Direction
102 104 95 77 82 99 121 136 139 139 300 321 325 335 347 352 353 358 344 332 326 315 302 292 284 276 268 265 266 266 267 264 261 260 258 255 251 250
112 108 94 84 80 86 106 112 128 147 187 272 293 313 326 340 359 348 326 320 315 310 301 292 285 278 269 262 262 262 260 259 259 257 256 255 253 253
109 115 106 111 100 94 102 111 121 139 174 266 277 299 309 326 335 334 320 311 305 302 298 290 285 281 276 272 269 264 259 256 254 252 252 251 250 252
151 141 143 133 115 116 124 133 149 166 179 236 287 303 298 308 314 317 322 318 302 295 292 286 284 282 279 276 272 267 262 258 256 254 252 251 252 252
182 180 184 166 179 188 179 180 184 170 177 209 271 289 292 307 317 311 309 307 300 296 290 283 283 284 282 277 273 268 264 261 259 256 254 253 253 254
200 200 200 199 206 204 204 204 192 181 182 214 263 282 283 294 288 296 307 310 308 309 303 294 286 287 284 279 273 267 264 261 260 258 255 254 254 253
216 220 224 224 223 213 210 206 193 197 206 227 259 273 279 280 279 278 289 304 293 285 298 296 295 291 288 281 274 269 267 264 260 258 257 256 255 254
224 238 246 243 242 234 229 216 201 204 214 218 238 253 266 262 261 261 274 300 298 281 288 292 287 284 283 276 269 267 267 266 264 260 257 254 253 252
223 237 251 250 244 245 249 244 231 228 217 211 236 248 254 248 244 263 256 255 265 279 279 285 281 280 281 277 268 268 267 267 266 262 258 255 253 252
227 227 238 256 250 237 245 256 259 250 234 227 235 247 251 252 240 253 268 273 270 261 236 268 279 278 284 282 274 267 266 266 265 265 264 261 257 255
236 231 231 246 252 238 231 251 270 274 257 238 239 250 256 254 243 244 250 257 279 279 214 238 272 283 282 279 277 271 268 267 267 267 265 263 260 259
244 239 235 238 245 232 221 232 255 267 276 283 270 268 265 263 243 229 235 246 263 275 231 219 264 282 289 271 272 277 276 271 267 266 264 262 259 256
245 247 240 232 239 239 226 228 241 254 270 274 281 282 278 268 255 236 227 230 242 254 246 215 257 256 258 280 279 273 272 275 277 271 262 258 253 242
241 247 245 240 242 244 237 236 244 249 253 262 269 273 274 273 267 254 238 234 238 250 259 234 249 256 264 275 281 278 270 268 268 271 273 267 256 244
240 243 250 254 254 252 246 246 245 237 237 249 258 263 262 266 273 272 259 245 248 251 252 241 243 253 254 263 273 277 283 280 265 264 268 267 267 260
243 251 253 254 249 254 259 250 234 229 230 245 256 263 267 267 266 264 269 268 268 270 250 239 237 240 250 255 261 270 270 272 274 271 273 273 267 256
205 228 242 246 251 251 251 251 242 231 234 242 250 261 265 267 267 259 254 258 256 272 281 267 243 239 243 252 259 262 267 268 268 272 270 273 270 262
179 224 238 242 249 254 257 259 248 240 240 243 248 253 259 264 269 265 251 253 260 265 269 276 278 269 260 248 230 253 264 268 271 267 261 268 274 271
201 232 241 244 247 249 253 256 259 256 247 246 251 254 256 260 263 266 265 261 262 264 267 268 263 262 276 282 261 220 247 269 275 273 264 259 269 274
223 235 243 245 246 248 251 255 260 265 258 253 253 256 255 256 260 263 264 264 266 269 272 267 256 250 254 272 282 274 237 250 267 273 274 271 268 269
229 237 244 248 249 251 253 254 256 260 261 260 259 260 260 258 261 265 267 267 265 267 271 272 268 256 259 263 267 269 266 241 241 259 273 275 276 273
244 246 248 248 250 251 252 252 256 259 263 261 262 263 261 260 262 265 267 269 266 265 270 273 277 267 246 254 267 276 281 280 259 246 246 244 255 265
251 253 255 254 252 252 253 254 257 263 263 264 267 267 266 264 264 266 269 268 268 270 272 275 274 264 259 262 270 276 280 283 284 281 271 248 240 249